TimeCDT,TemperatureF,Dew PointF,Humidity,Sea Level PressureIn,VisibilityMPH,Wind Direction,Wind SpeedMPH,Gust SpeedMPH,PrecipitationIn,Events,Conditions,WindDirDegrees,DateUTC
12:59 AM,60.8,59.0,94,29.76,5.0,East,8.1,-,N/A,,Overcast,90,2012-10-23 05:59:00
1:26 AM,60.8,59.0,94,29.76,2.0,ESE,6.9,-,N/A,,Overcast,110,2012-10-23 06:26:00
1:52 AM,62.1,61.0,96,29.75,2.5,East,6.9,-,N/A,,Overcast,100,2012-10-23 06:52:00
2:26 AM,62.6,60.8,94,29.74,1.5,East,6.9,-,N/A,,Overcast,100,2012-10-23 07:26:00
2:50 AM,62.6,60.8,94,29.73,2.0,East,11.5,-,N/A,,Overcast,100,2012-10-23 07:50:00
2:52 AM,63.0,61.0,93,29.72,2.5,East,10.4,-,N/A,,Overcast,100,2012-10-23 07:52:00
3:25 AM,62.6,60.8,94,29.71,3.0,ESE,9.2,-,N/A,,Overcast,120,2012-10-23 08:25:00
3:52 AM,63.0,61.0,93,29.71,3.0,SE,10.4,-,N/A,,Overcast,130,2012-10-23 08:52:00
4:34 AM,62.6,60.8,94,29.70,1.8,SSE,10.4,-,N/A,,Overcast,160,2012-10-23 09:34:00
5:10 AM,60.8,60.8,100,29.70,1.2,South,10.4,-,N/A,,Overcast,180,2012-10-23 10:10:00
5:47 AM,60.8,60.8,100,29.71,1.0,South,9.2,-,0.00,Rain,Light Rain,190,2012-10-23 10:47:00
5:52 AM,61.0,61.0,100,29.70,0.8,South,10.4,-,0.00,Rain,Light Rain,190,2012-10-23 10:52:00
6:20 AM,60.8,60.8,100,29.71,1.2,SSW,12.7,-,0.00,,Overcast,200,2012-10-23 11:20:00
6:33 AM,60.8,59.0,94,29.71,2.5,SSW,12.7,-,0.00,,Overcast,200,2012-10-23 11:33:00
6:45 AM,60.8,59.0,94,29.71,3.0,SSW,11.5,-,0.00,,Overcast,200,2012-10-23 11:45:00
6:52 AM,60.1,57.9,93,29.70,3.0,SSW,12.7,-,0.00,,Overcast,200,2012-10-23 11:52:00
7:06 AM,60.8,57.2,88,29.72,3.0,SSW,13.8,-,N/A,,Overcast,210,2012-10-23 12:06:00
7:38 AM,57.2,57.2,100,29.72,2.0,SSW,16.1,-,N/A,,Overcast,200,2012-10-23 12:38:00
7:52 AM,57.9,57.0,97,29.72,2.0,SSW,16.1,-,N/A,,Overcast,200,2012-10-23 12:52:00
8:15 AM,57.2,55.4,94,29.73,1.0,SSW,16.1,-,N/A,,Overcast,200,2012-10-23 13:15:00
8:23 AM,57.2,55.4,94,29.73,0.5,South,12.7,-,N/A,Fog,Fog,190,2012-10-23 13:23:00
8:52 AM,57.0,55.9,96,29.74,0.8,South,13.8,-,N/A,,Overcast,190,2012-10-23 13:52:00
9:07 AM,57.2,55.4,94,29.74,1.0,South,13.8,-,N/A,,Overcast,190,2012-10-23 14:07:00
9:32 AM,57.2,55.4,94,29.74,1.2,South,11.5,-,N/A,,Overcast,190,2012-10-23 14:32:00
10:52 AM,57.0,55.0,93,29.75,1.5,South,13.8,-,N/A,,Overcast,190,2012-10-23 15:52:00
11:17 AM,57.2,55.4,94,29.75,3.0,SSW,12.7,-,N/A,,Overcast,200,2012-10-23 16:17:00
11:43 AM,57.2,55.4,94,29.75,2.0,SSW,10.4,-,N/A,,Overcast,200,2012-10-23 16:43:00
11:52 AM,57.0,55.9,96,29.74,2.5,South,12.7,-,N/A,,Overcast,190,2012-10-23 16:52:00
12:00 PM,57.2,55.4,94,29.74,3.0,South,13.8,-,N/A,,Overcast,190,2012-10-23 17:00:00
12:52 PM,59.0,55.9,90,29.72,5.0,South,11.5,-,N/A,,Overcast,190,2012-10-23 17:52:00
1:10 PM,59.0,55.4,88,29.72,6.0,SSW,13.8,-,N/A,,Overcast,200,2012-10-23 18:10:00
1:52 PM,60.1,55.0,83,29.70,6.0,SSW,13.8,-,N/A,,Haze,210,2012-10-23 18:52:00
3:52 PM,62.1,55.9,80,29.69,7.0,SW,10.4,-,N/A,,Overcast,230,2012-10-23 20:52:00
4:05 PM,62.6,55.4,77,29.70,7.0,WSW,8.1,-,N/A,,Overcast,240,2012-10-23 21:05:00
4:52 PM,62.1,55.9,80,29.69,7.0,SSW,5.8,-,N/A,,Overcast,210,2012-10-23 21:52:00
5:52 PM,62.1,55.9,80,29.70,7.0,Calm,Calm,-,N/A,,Overcast,0,2012-10-23 22:52:00
6:52 PM,61.0,55.9,83,29.73,8.0,Calm,Calm,-,N/A,,Overcast,0,2012-10-23 23:52:00
7:52 PM,57.9,55.0,90,29.75,6.0,Calm,Calm,-,N/A,,Mostly Cloudy,0,2012-10-24 00:52:00
8:52 PM,55.9,54.0,93,29.76,6.0,East,3.5,-,N/A,,Mostly Cloudy,80,2012-10-24 01:52:00
9:52 PM,55.9,53.1,90,29.78,5.0,NNW,3.5,-,N/A,,Partly Cloudy,330,2012-10-24 02:52:00
10:26 PM,57.2,55.4,94,29.79,5.0,NNW,4.6,-,N/A,,Mostly Cloudy,340,2012-10-24 03:26:00
10:48 PM,57.2,55.4,94,29.79,6.0,NNW,5.8,-,N/A,,Overcast,330,2012-10-24 03:48:00
10:52 PM,57.9,55.0,90,29.80,6.0,NW,6.9,-,N/A,,Overcast,320,2012-10-24 03:52:00
11:52 PM,57.9,55.9,93,29.79,5.0,NNW,5.8,-,N/A,,Overcast,330,2012-10-24 04:52:00